Regional Weather Roundup
Issued by NWS

Home | Current Version | Previous Version | Graphics & Text | Print | Product List | Glossary On
Versions: 1 2 3 4 5 6 7 8 9 10 11 12 13 14 15 16 17 18 19 20 21 22 23 24 25 26 27 28 29 30 31 32 33 34 35 36 37 38 39 40 41 42 43 44 45 46 47 48 49 50
000
ASUS43 KIND 270609
RWRIN

WEATHER ROUNDUP FOR INDIANA
NATIONAL WEATHER SERVICE INDIANAPOLIS IN
200 AM EDT SAT MAY 27 2017

NOTE: "FAIR" INDICATES FEW OR NO CLOUDS BELOW 12,000 FEET WITH NO
SIGNIFICANT WEATHER AND/OR OBSTRUCTIONS TO VISIBILITY.

* - STATION DOES NOT REPORT WEATHER SUCH AS PRECIPITATION OR FOG.

+ - STATION NOT QUALITY CONTROLLED BY THE NATIONAL WEATHER SERVICE.
    USE DATA WITH CAUTION...ESPECIALLY DEWPOINT AND RELATIVE
    HUMIDITY OBSERVATIONS.

INZ001>003-010>013-019-020-270700-
NORTHWEST INDIANA

CITY           SKY/WX    TMP DP  RH WIND       PRES   REMARKS
GARY /AIRPORT/ HVY RAIN  56  54  92 NE6       29.85S
KNOX *+        MOCLDY    61  55  82 E6        29.82S
LA PORTE +     CLOUDY    60  58  95 E7        29.85S
6HR MIN TEMP:  60; 6HR MAX TEMP:  63; 6HR PCP:  0.26;

MICHIGAN CITY+ CLOUDY    59  59 100 CALM      29.85R
MONTICELLO +   CLOUDY    64  63  95 CALM      29.80S FOG
6HR MIN TEMP:  64; 6HR MAX TEMP:  66; 6HR PCP:  0.01;

RENSSELAER +   CLOUDY    63  59  88 NE6       29.83R
VALPARAISO     CLOUDY    62  60  93 NE6       29.84S
6HR MIN TEMP:  61; 6HR MAX TEMP:  67; 6HR PCP:  0.04;


$$

LMZ046-743>745-270700-
SOUTHERN LAKE MICHIGAN

STATION/POSITION TIME  TEMP    WIND        PRES    WAVE
                       AIR SEA DIR/SP/G            HT
                 (UTC) (F)     (DEG/KT/KT) (MB)    (FT)
BURNS HARBOR     0540   56      70/  6/  7 1011.2R
MICHIGAN CITY    0540   58      20/  6/  6   N/A
5NW MICH CITY    0600   53 52   30/  8/ 10   N/A     1

$$

INZ004-005-014>016-021>024-270700-
NORTH CENTRAL INDIANA

CITY           SKY/WX    TMP DP  RH WIND       PRES   REMARKS
GOSHEN         CLOUDY    59  56  89 NE7       29.84F
6HR MIN TEMP:  59; 6HR MAX TEMP:  63; 6HR PCP:  0.67;

LOGANSPORT +   CLOUDY    63  63 100 E5        29.82S
PERU/GRISSOM   CLOUDY    65  65 100 E6        29.80F
6HR MIN TEMP:  65; 6HR MAX TEMP:  67; 6HR PCP:  0.30;

ROCHESTER +    CLOUDY    63  63 100 E5        29.82F
SOUTH BEND     CLOUDY    58  57  97 E6        29.85S
6HR MIN TEMP:  58; 6HR MAX TEMP:  61; 6HR PCP:  0.47;

WARSAW +       CLOUDY    59  59 100 E3        29.83S

$$

INZ006>009-017-018-025>027-270700-
NORTHEAST INDIANA

CITY           SKY/WX    TMP DP  RH WIND       PRES   REMARKS
ANGOLA *+      MOCLDY    57  57 100 E6        29.85F
AUBURN +       CLOUDY    59  55  88 E8        29.85F
FORT WAYNE     LGT RAIN  62  59  90 E9        29.83F
6HR MIN TEMP:  62; 6HR MAX TEMP:  69; 6HR PCP:  0.83;

HUNTINGTON +   RAIN     N/A N/A N/A E6        29.83S
                                      6HR PCP:  0.12;

KENDALLVILLE + CLOUDY    58  58 100 E7        29.85S

$$

INZ028-029-035-036-043>045-051>053-270700-
WEST CENTRAL INDIANA

CITY           SKY/WX    TMP DP  RH WIND       PRES   REMARKS
CRAWFORDSVL +  CLOUDY   N/A N/A N/A SW6       29.86R
                                      6HR PCP:  0.06;

GREENCASTLE +  CLOUDY    70  63  78 CALM      29.84R
LAFAYETTE      CLOUDY    67  65  93 CALM      29.80R
6HR MIN TEMP:  66; 6HR MAX TEMP:  69; 6HR PCP:  0.02;

TERRE HAUTE    PTCLDY    71  64  78 SW7       29.82S
6HR MIN TEMP:  71; 6HR MAX TEMP:  76;


$$

INZ030>032-037>040-046>048-054>057-064-065-270700-
CENTRAL INDIANA

CITY           SKY/WX    TMP DP  RH WIND       PRES   REMARKS
CP ATTERBURY + CLOUDY    72  63  73 W6        29.83S
FRANKFORT +    CLOUDY    68  65  90 SW6       29.83S
6HR MIN TEMP:  67; 6HR MAX TEMP:  73; 6HR PCP:  0.37;

GREENWOOD *+   CLEAR     71  63  74 W8        29.83R
6HR MIN TEMP:  69; 6HR MAX TEMP:  75;

INDIANAPOLIS   PTCLDY    67  63  87 W6        29.82R
6HR MIN TEMP:  66; 6HR MAX TEMP:  75; 6HR PCP:  0.62;

-EAGLE CREEK   CLEAR     68  63  84 SW6       29.81R
6HR MIN TEMP:  67; 6HR MAX TEMP:  76; 6HR PCP:  0.75;

KOKOMO +       CLOUDY    66  64  93 E6        29.82F
6HR MIN TEMP:  66; 6HR MAX TEMP:  70; 6HR PCP:  0.10;

MARION +       CLOUDY    64  63  94 NE3       29.82F
MT COMFORT *+  CLOUDY    64  63  94 CALM      29.83S
SHELBYVILLE    CLOUDY    72  62  71 SW8       29.81R
6HR MIN TEMP:  72; 6HR MAX TEMP:  77; 6HR PCP:  0.03;

ZIONSVILLE +   PTCLDY    61  61  99 CALM      29.83S FOG
6HR MIN TEMP:  61; 6HR MAX TEMP:  72; 6HR PCP:  0.57;


$$

INZ033-034-041-042-049-050-058-059-270700-
EAST CENTRAL INDIANA

CITY           SKY/WX    TMP DP  RH WIND       PRES   REMARKS
MUNCIE         CLOUDY    67  63  87 N8        29.82S
6HR MIN TEMP:  66; 6HR MAX TEMP:  75; 6HR PCP:  0.60;

RICHMOND +     DRIZZLE   63  61  94 S9        29.85S

$$

INZ060-061-067>069-081>083-085>088-270700-
SOUTHWEST INDIANA

CITY           SKY/WX    TMP DP  RH WIND       PRES   REMARKS
EVANSVILLE     MOCLDY    73  67  81 MISG      29.86F
6HR MIN TEMP:  73; 6HR MAX TEMP:  80; 6HR PCP: TRACE;

HUNTINGBURG *+ CLOUDY    71  67  87 SW8       29.86S
6HR MIN TEMP:  71; 6HR MAX TEMP:  78;

WASHINGTON +   PTCLDY    71  65  83 SW5       29.84S
6HR MIN TEMP:  70; 6HR MAX TEMP:  78;


$$

INZ062-063-066-070>080-084-089>092-270700-
SOUTH CENTRAL AND SOUTHEAST INDIANA

CITY           SKY/WX    TMP DP  RH WIND       PRES   REMARKS
BLOOMINGTON    CLOUDY    72  64  76 W7        29.83S
6HR MIN TEMP:  72; 6HR MAX TEMP:  76;

MADISON *+     CLOUDY    72  63  73 SW7       29.85S
NORTH VERNON + CLOUDY    72  61  68 SW8       29.84S

$$





USA.gov is the U.S. government's official web portal to all federal, state and local government web resources and services.